Regional Weather Roundup
Issued by NWS Northern Indiana

Home | Current Version | Previous Version | Graphics & Text | Print | Product List | Glossary On
Versions: 1 2 3 4 5 6 7 8 9 10 11 12 13 14 15 16 17 18 19 20 21 22 23 24 25 26 27 28 29 30 31 32 33 34 35 36 37 38 39 40 41 42 43 44 45 46 47 48 49 50
000
ASUS43 KIWX 210100
RWRIWX

KIWX WEATHER ROUNDUP
NATIONAL WEATHER SERVICE NORTHERN INDIANA
800 PM EST MON FEB 20 2017

NOTE: "FAIR" INDICATES FEW OR NO CLOUDS BELOW 12,000 FEET WITH NO
SIGNIFICANT WEATHER AND/OR OBSTRUCTIONS TO VISIBILITY.

* THESE STATIONS ARE NOT UNDER NWS QUALITY CONTROL. THEY ALSO MAY NOT
  REPORT WEATHER SUCH AS PRECIPITATION OR FOG.

INZ001>027-210200-
NORTHERN INDIANA

CITY           SKY/WX    TMP DP  RH WIND       PRES   REMARKS
GARY*          MOCLDY    63  41  45 SE12G23   29.99F
LAPORTE*       CLOUDY    53  42  67 SE7       30.04S
KNOX*          CLOUDY    55  18  22 SE10      30.04S
SOUTH BEND     CLOUDY    57  43  59 SE15      30.06F
ELKHART*       CLEAR     57  41  54 SE8       30.06F
GOSHEN         CLOUDY    56  40  55 SE9       30.07F
WARSAW*        MOCLDY    55  41  58 SE8       30.07F
ANGOLA*        CLEAR     46  37  71 E12       30.12R
FORT WAYNE     CLOUDY    54  41  61 SE8       30.10F
PERU/GRISSOM   CLOUDY    57  44  62 SE8       30.05F

$$
INZ028>050-210200-
CENTRAL INDIANA

CITY           SKY/WX    TMP DP  RH WIND       PRES   REMARKS
LAFAYETTE      CLOUDY    60  46  59 SE8       30.04R
KOKOMO*        CLOUDY    55  45  68 SE8       30.07F
MUNCIE*        CLOUDY    58  43  57 SE5       30.08F
INDIANAPOLIS   CLOUDY    59  47  64 SE9       30.07R

$$
MIZ043>046-050>051-056>058-064>065-071>073-077>080-210200-
SOUTHWEST LOWER MICHIGAN

CITY           SKY/WX    TMP DP  RH WIND       PRES   REMARKS
BATTLE CREEK   CLOUDY    50  34  54 SE9       30.11S
BENTON HARBOR  CLOUDY    57  41  55 SE13      30.02F
COLDWATER*     CLOUDY    46  32  56 SE10G21   30.12S
HILLSDALE*     CLOUDY    39  30  70 E14G22    30.13S
HOLLAND        CLOUDY    55  38  52 SE15      30.03F
GRAND RAPIDS   CLOUDY    51  34  52 SE14      30.06F
KALAMAZOO      CLOUDY    52  35  52 SE13      30.09F
STURGIS*       CLOUDY    51  37  60 SE13      30.09F
THREE RIVERS*  FAIR      51  37  60 SE9       30.09F

$$
OHZ001>008-015>018-024>025-210200-
NORTHWEST OHIO

CITY           SKY/WX    TMP DP  RH WIND       PRES   REMARKS
DEFIANCE       CLOUDY    42  32  67 E10       30.15R
FINDLAY        CLOUDY    46  34  62 E9        30.14F
TOLEDO EXPRESS CLOUDY    38  33  82 E9        30.16F
TOLEDO METCALF CLOUDY    37  33  85 E9        30.18F
LIMA           CLOUDY    52  41  66 SE10      30.13F

$$
AND FOR LAKE MICHIGAN COASTAL AND OPEN LAKE BUOY OBSERVATIONS

STATION/POSITION TEMP    WIND        PRES    VSBY  WAVE
                 AIR SEA DIR/SP/G                  HT/PER
                 (F)     (DEG/KT/KT) (MB)    (MI)  (FT/S)
CALUMET HARBOR    62     150/ 10/ 16 1014.9F
MICHIGAN CITY     61     130/ 12/ 15   N/A
BURNS HARBOR      62     140/ 14/ 22 1016.3F

$$
&&




USA.gov is the U.S. government's official web portal to all federal, state and local government web resources and services.